Powrót do katalogu

SL-8 DEB

AktywnyPO
NORAD 43335·DEBRIS·🇷🇺 Russia

Wystrzelony Apr 4, 1989 z Plesetsk Cosmodrome

Loading…

Następne Przeloty (najbliższe 24 godziny)

TLE

ŚwieżeSource: Space-Track

Epoka: Sep 13, 2026, 20:42 UTC

1 43335U 89028C   26256.86263876  .00000908  00000-0  76952-3 0  9991
2 43335  82.9374  54.6082 0041274 320.8397  38.9780 13.86144589645467

Śledź SL-8 DEB w czasie rzeczywistym z AllMySat

Download on the App Store